TimeCST,TemperatureF,Dew PointF,Humidity,Sea Level PressureIn,VisibilityMPH,Wind Direction,Wind SpeedMPH,Gust SpeedMPH,PrecipitationIn,Events,Conditions,WindDirDegrees,DateUTC
12:14 AM,37.4,26.6,65,30.31,10.0,ESE,5.8,-,N/A,,Mostly Cloudy,120,2012-11-14 06:14:00
12:35 AM,37.4,26.6,65,30.31,10.0,ESE,6.9,-,N/A,,Mostly Cloudy,120,2012-11-14 06:35:00
12:55 AM,37.4,26.6,65,30.30,10.0,SE,9.2,-,N/A,,Overcast,130,2012-11-14 06:55:00
1:15 AM,37.4,26.6,65,30.30,10.0,SE,8.1,-,N/A,,Mostly Cloudy,140,2012-11-14 07:15:00
1:35 AM,37.4,26.6,65,30.29,10.0,SE,8.1,-,N/A,,Mostly Cloudy,140,2012-11-14 07:35:00
1:55 AM,37.4,26.6,65,30.30,10.0,SE,5.8,-,N/A,,Mostly Cloudy,130,2012-11-14 07:55:00
2:15 AM,37.4,26.6,65,30.30,10.0,SE,4.6,-,N/A,,Overcast,140,2012-11-14 08:15:00
2:35 AM,37.4,26.6,65,30.30,10.0,SE,5.8,-,N/A,,Mostly Cloudy,130,2012-11-14 08:35:00
2:55 AM,37.4,26.6,65,30.30,10.0,SE,5.8,-,N/A,,Scattered Clouds,140,2012-11-14 08:55:00
3:15 AM,37.4,26.6,65,30.28,10.0,SE,5.8,-,N/A,,Mostly Cloudy,140,2012-11-14 09:15:00
3:35 AM,37.4,26.6,65,30.29,10.0,SE,4.6,-,N/A,,Mostly Cloudy,130,2012-11-14 09:35:00
3:55 AM,37.4,28.4,70,30.28,10.0,SE,5.8,-,N/A,,Overcast,140,2012-11-14 09:55:00
4:15 AM,37.4,28.4,70,30.28,10.0,SE,3.5,-,N/A,,Mostly Cloudy,140,2012-11-14 10:15:00
4:35 AM,37.4,28.4,70,30.28,10.0,SE,3.5,-,N/A,,Mostly Cloudy,130,2012-11-14 10:35:00
4:55 AM,37.4,28.4,70,30.29,10.0,SE,3.5,-,N/A,,Mostly Cloudy,130,2012-11-14 10:55:00
5:15 AM,37.4,28.4,70,30.29,10.0,Calm,Calm,-,N/A,,Mostly Cloudy,0,2012-11-14 11:15:00
5:35 AM,37.4,28.4,70,30.28,10.0,SE,4.6,-,N/A,,Overcast,130,2012-11-14 11:35:00
5:55 AM,37.4,28.4,70,30.28,10.0,SE,4.6,-,N/A,,Mostly Cloudy,130,2012-11-14 11:55:00
6:15 AM,37.4,28.4,70,30.28,10.0,SE,4.6,-,N/A,,Mostly Cloudy,140,2012-11-14 12:15:00
6:34 AM,37.4,28.4,70,30.28,10.0,SE,4.6,-,N/A,,Overcast,140,2012-11-14 12:34:00
6:55 AM,37.4,28.4,70,30.28,10.0,SE,3.5,-,N/A,,Overcast,140,2012-11-14 12:55:00
7:15 AM,37.4,28.4,70,30.28,10.0,SE,4.6,-,N/A,,Overcast,140,2012-11-14 13:15:00
7:35 AM,37.4,28.4,70,30.29,10.0,SE,3.5,-,N/A,,Overcast,140,2012-11-14 13:35:00
7:55 AM,37.4,30.2,75,30.29,10.0,SE,4.6,-,N/A,,Overcast,130,2012-11-14 13:55:00
8:15 AM,37.4,28.4,70,30.29,10.0,SE,5.8,-,N/A,,Scattered Clouds,130,2012-11-14 14:15:00
8:35 AM,37.4,30.2,75,30.28,10.0,SE,4.6,-,N/A,,Clear,140,2012-11-14 14:35:00
8:55 AM,39.2,30.2,70,30.28,10.0,SSE,4.6,-,N/A,,Clear,160,2012-11-14 14:55:00
9:15 AM,41.0,30.2,65,30.29,10.0,South,3.5,-,N/A,,Scattered Clouds,180,2012-11-14 15:15:00
9:35 AM,41.0,30.2,65,30.29,10.0,SSW,5.8,-,N/A,,Scattered Clouds,210,2012-11-14 15:35:00
9:55 AM,42.8,32.0,66,30.29,10.0,SSW,4.6,-,N/A,,Clear,210,2012-11-14 15:55:00
10:15 AM,44.6,32.0,61,30.28,10.0,SSW,5.8,-,N/A,,Scattered Clouds,200,2012-11-14 16:15:00
10:35 AM,44.6,32.0,61,30.28,10.0,South,8.1,-,N/A,,Clear,180,2012-11-14 16:35:00
10:55 AM,44.6,32.0,61,30.28,10.0,South,4.6,-,N/A,,Clear,180,2012-11-14 16:55:00
11:15 AM,44.6,33.8,66,30.28,10.0,South,6.9,-,N/A,,Clear,180,2012-11-14 17:15:00
11:35 AM,46.4,33.8,62,30.27,10.0,South,6.9,-,N/A,,Clear,190,2012-11-14 17:35:00
11:55 AM,46.4,33.8,62,30.26,10.0,South,6.9,-,N/A,,Clear,180,2012-11-14 17:55:00
12:15 PM,48.2,33.8,58,30.25,10.0,South,5.8,-,N/A,,Clear,190,2012-11-14 18:15:00
12:35 PM,48.2,33.8,58,30.25,10.0,South,4.6,-,N/A,,Clear,180,2012-11-14 18:35:00
12:55 PM,48.2,33.8,58,30.24,10.0,SSW,6.9,-,N/A,,Clear,210,2012-11-14 18:55:00
1:15 PM,50.0,33.8,54,30.24,10.0,SW,4.6,-,N/A,,Clear,230,2012-11-14 19:15:00
1:35 PM,50.0,32.0,50,30.24,10.0,SW,4.6,-,N/A,,Clear,220,2012-11-14 19:35:00
1:55 PM,51.8,33.8,50,30.23,10.0,SW,3.5,-,N/A,,Clear,220,2012-11-14 19:55:00
2:15 PM,51.8,32.0,47,30.23,10.0,SSW,6.9,-,N/A,,Scattered Clouds,210,2012-11-14 20:15:00
2:35 PM,51.8,33.8,50,30.22,10.0,Calm,Calm,-,N/A,,Overcast,0,2012-11-14 20:35:00
2:55 PM,51.8,33.8,50,30.22,10.0,South,5.8,-,N/A,,Overcast,180,2012-11-14 20:55:00
3:15 PM,51.8,30.2,44,30.22,10.0,SSW,4.6,-,N/A,,Overcast,210,2012-11-14 21:15:00
3:35 PM,51.8,32.0,47,30.22,10.0,SSW,4.6,-,N/A,,Overcast,200,2012-11-14 21:35:00
3:55 PM,50.0,32.0,50,30.22,10.0,SSW,4.6,-,N/A,,Overcast,200,2012-11-14 21:55:00
4:15 PM,50.0,32.0,50,30.22,10.0,South,3.5,-,N/A,,Scattered Clouds,190,2012-11-14 22:15:00
4:35 PM,48.2,33.8,58,30.21,10.0,SSE,3.5,-,N/A,,Clear,150,2012-11-14 22:35:00
4:55 PM,48.2,32.0,54,30.21,10.0,SSE,3.5,-,N/A,,Clear,150,2012-11-14 22:55:00
5:15 PM,46.4,33.8,62,30.21,10.0,ESE,3.5,-,N/A,,Clear,120,2012-11-14 23:15:00
5:35 PM,46.4,33.8,62,30.21,10.0,SE,4.6,-,N/A,,Clear,130,2012-11-14 23:35:00
5:55 PM,44.6,33.8,66,30.21,10.0,SE,5.8,-,N/A,,Clear,130,2012-11-14 23:55:00
6:15 PM,44.6,33.8,66,30.20,10.0,SE,4.6,-,N/A,,Clear,130,2012-11-15 00:15:00
6:35 PM,44.6,33.8,66,30.20,10.0,SE,4.6,-,N/A,,Clear,130,2012-11-15 00:35:00
6:55 PM,44.6,33.8,66,30.20,10.0,ESE,3.5,-,N/A,,Scattered Clouds,110,2012-11-15 00:55:00
7:15 PM,42.8,33.8,70,30.20,10.0,ESE,4.6,-,N/A,,Scattered Clouds,120,2012-11-15 01:15:00
7:35 PM,44.6,33.8,66,30.20,10.0,Calm,Calm,-,N/A,,Scattered Clouds,0,2012-11-15 01:35:00
7:55 PM,42.8,33.8,70,30.20,10.0,ESE,3.5,-,N/A,,Mostly Cloudy,120,2012-11-15 01:55:00
8:35 PM,41.0,33.8,76,30.20,10.0,ESE,4.6,-,N/A,,Clear,120,2012-11-15 02:35:00
8:55 PM,42.8,35.6,76,30.19,10.0,ESE,5.8,-,N/A,,Clear,120,2012-11-15 02:55:00
9:15 PM,44.6,33.8,66,30.19,10.0,ESE,5.8,-,N/A,,Clear,110,2012-11-15 03:15:00
9:35 PM,44.6,33.8,66,30.19,10.0,SE,4.6,-,N/A,,Clear,130,2012-11-15 03:35:00
9:55 PM,44.6,33.8,66,30.19,10.0,SE,4.6,-,N/A,,Clear,130,2012-11-15 03:55:00
10:15 PM,42.8,32.0,66,30.19,10.0,SE,3.5,-,N/A,,Scattered Clouds,130,2012-11-15 04:15:00
10:35 PM,44.6,32.0,61,30.19,10.0,SE,3.5,-,N/A,,Clear,130,2012-11-15 04:35:00
10:55 PM,42.8,30.2,61,30.19,10.0,Calm,Calm,-,N/A,,Clear,0,2012-11-15 04:55:00
11:03 PM,42.8,30.2,61,30.19,10.0,Calm,Calm,-,N/A,,Clear,0,2012-11-15 05:03:00
11:37 PM,42.8,30.2,61,30.19,10.0,South,3.5,-,N/A,,Clear,170,2012-11-15 05:37:00
11:55 PM,44.6,30.2,57,30.19,10.0,South,4.6,-,N/A,,Clear,190,2012-11-15 05:55:00